Flag for United Kingdom Weather past 2 weeks in Edinburgh, Scotland, United Kingdom

Now
63 °F

Broken clouds.


Feels Like: 63 °F
Forecast: 54 / 62 °F
Wind: 20 mph from Southwest

Location: Edinburgh Airport

Current Time: Aug 4, 2015 at 11:33:33 AM

Latest Report: Aug 4, 2015 at 11:20 AM


Visibility: N/A

Pressure: 29.50 "Hg

Humidity: 73%

Dew point: 54 °F

Location of EdinburghLocation

Historic Weather in Edinburgh — Graph

°F

Edinburgh temperature yesterday

Maximum temperature yesterday: 68 °F (at 9:20 AM)
Minimum temperature yesterday: 57 °F (at 12:20 AM)
Average temperature yesterday: 63 °F

Past Weeks' High & Low Weather Summary

 TemperatureHumidityPressure
High68 °F (Aug 3, 9:20 AM)100% (Jul 20, 4:20 PM)30.07 "Hg (Jul 20, 4:20 PM)
Low41 °F (Jul 26, 5:20 AM)51% (Jul 30, 4:20 PM)29.42 "Hg (Jul 27, 3:20 AM)
Average55 °F80%29.79 "Hg
* Reported Jul 20 10:20 AM — Aug 4 10:20 AM, Edinburgh, Weather by CustomWeather, © 2015

Note: Actual official high and low records may vary slightly from our data, if they occured in-between our weather recording intervals... More about our weather records

Advertising

Edinburgh weather history for previous 24 hours

 ConditionsComfort  
Time TempWeatherWind HumidityBarometerVisibility
10:20 AM
Tue, Aug 4
61 °FPartly sunny.18 mph77%29.50 "HgN/A
9:50 AM63 °FPartly sunny.20 mph73%29.50 "HgN/A
9:20 AM63 °FScattered clouds.16 mph73%29.50 "HgN/A
8:50 AM61 °FScattered clouds.15 mph77%29.50 "HgN/A
8:20 AM59 °FLight rain. Partly sunny.15 mph82%29.50 "HgN/A
7:50 AM59 °FLight rain. Passing clouds.15 mph82%29.47 "HgN/A
7:20 AM57 °FLight rain. Scattered clouds.14 mph88%29.47 "HgN/A
6:50 AM59 °FLight rain. Broken clouds.15 mph77%29.47 "HgN/A
6:20 AM57 °FMostly cloudy.13 mph77%29.50 "HgN/A
5:50 AM57 °FPartly cloudy.15 mph77%29.50 "HgN/A
5:20 AM57 °FPartly cloudy.16 mph77%29.50 "HgN/A
4:50 AM57 °FMostly cloudy.16 mph72%29.50 "HgN/A
4:20 AM57 °FMostly cloudy.13 mph72%29.50 "HgN/A
3:50 AM57 °FPassing clouds.15 mph72%29.53 "HgN/A
3:20 AM59 °FPartly cloudy.16 mph68%29.53 "HgN/A
2:50 AM59 °FPassing clouds.16 mph63%29.56 "HgN/A
2:20 AM57 °FPassing clouds.12 mph72%29.56 "HgN/A
1:50 AM55 °FClear.12 mph72%29.59 "Hg10 mi
1:20 AM57 °FClear.14 mph67%29.59 "Hg10 mi
12:50 AM55 °FClear.10 mph72%29.62 "Hg10 mi
12:20 AM55 °FClear.12 mph72%29.62 "Hg10 mi
11:50 PM
Mon, Aug 3
57 °FClear.13 mph72%29.62 "Hg10 mi
11:20 PM57 °FClear.16 mph67%29.62 "Hg10 mi
10:20 PM59 °FClear.20 mph63%29.62 "Hg10 mi
9:50 PM59 °FPassing clouds.15 mph68%29.65 "HgN/A
9:20 PM59 °FPassing clouds.13 mph68%29.65 "HgN/A
8:50 PM61 °FPassing clouds.12 mph63%29.65 "HgN/A
8:20 PM61 °FPassing clouds.10 mph63%29.62 "HgN/A
7:50 PM63 °FPassing clouds.16 mph59%29.62 "HgN/A
7:20 PM64 °FScattered clouds.16 mph56%29.62 "HgN/A
6:50 PM66 °FScattered clouds.14 mph56%29.62 "HgN/A
6:20 PM64 °FScattered clouds.16 mph60%29.62 "HgN/A
5:50 PM66 °FPassing clouds.16 mph60%29.62 "HgN/A
5:20 PM66 °FPassing clouds.17 mph56%29.65 "HgN/A
4:50 PM66 °FPassing clouds.18 mph56%29.65 "HgN/A
4:20 PM66 °FPassing clouds.20 mph60%29.65 "HgN/A
3:50 PM66 °FScattered clouds.17 mph60%29.65 "HgN/A
3:20 PM68 °FScattered clouds.16 mph56%29.65 "HgN/A
2:50 PM66 °FScattered clouds.20 mph60%29.65 "HgN/A
2:20 PM66 °FScattered clouds.21 mph64%29.65 "HgN/A
1:20 PM68 °FScattered clouds.22 mph64%29.62 "HgN/A
12:50 PM68 °FMild.22 mph64%29.62 "HgN/A
12:20 PM68 °FPassing clouds.24 mph60%29.62 "HgN/A
11:50 AM68 °FScattered clouds.16 mph69%29.62 "HgN/A
11:20 AM68 °FScattered clouds.21 mph69%29.62 "HgN/A
Weather by CustomWeather, © 2015

See weather overviewHow to use our weather pages